Location: Rogalle
(42.8890°N, 1.1916°E)
Time: 03:52:09
(UTC+00:00)

Cosmos 2266 Rocket - Pass Details

Date: 13 December 2025
Orbit: 933 x 1007 km, 82.9° (Epoch: 12 January)

Event Time Altitude Azimuth Distance (km) Brightness Sun altitude
Rises 16:42:12 0° 355° (N) 3,645 6.8 -4.2°
Reaches altitude 10° 16:44:47 10° 360° (N) 2,685 6.1 -4.6°
Maximum altitude 16:50:48 57° 79° (ENE) 1,099 4.0 -5.6°
Drops below altitude 10° 16:56:42 10° 157° (SSE) 2,636 6.3 -6.5°
Sets 16:59:12 0° 162° (SSE) 3,573 7.1 -7.0°
